Retour au catalogue

STARLINK-5106

ActifCommunicationsVLEO
NORAD 54823·PAYLOAD·🇺🇸 United States

Lancé Dec 28, 2022 depuis Cape Canaveral Space Force Station

Loading…

Prochains Passages (prochaines 24 heures)

TLE

FraisSource: CelesTrak SupGP

Époque: Sep 15, 2026, 02:02 UTC

1 54823C 22177D   26258.08520833  .00036550  00000+0  13242-2 0  2583
2 54823  42.9995 146.2900 0001546 248.7911  13.3725 15.27550946    18

Suivez STARLINK-5106 en temps réel avec AllMySat

Download on the App Store